Year,Month,Day,Hour,Minute,Value (Times are PST for temperature in C)
2016,05,23,00,00,9.50
2016,05,23,00,01,9.50
2016,05,23,00,02,9.50
2016,05,23,00,03,9.40
2016,05,23,00,04,9.40
2016,05,23,00,05,9.40
2016,05,23,00,06,9.40
2016,05,23,00,07,9.40
2016,05,23,00,08,9.40
2016,05,23,00,09,9.40
2016,05,23,00,10,9.40
2016,05,23,00,11,9.40
2016,05,23,00,12,9.40
2016,05,23,00,13,9.40
2016,05,23,00,14,9.50
2016,05,23,00,15,9.50
2016,05,23,00,16,9.50
2016,05,23,00,17,9.50
2016,05,23,00,18,9.50
2016,05,23,00,19,9.50
2016,05,23,00,20,9.50
2016,05,23,00,21,9.50
2016,05,23,00,22,9.50
2016,05,23,00,23,9.50
2016,05,23,00,24,9.50
2016,05,23,00,25,9.50
2016,05,23,00,26,9.50
2016,05,23,00,27,9.50
2016,05,23,00,28,9.50
2016,05,23,00,29,9.50
2016,05,23,00,30,9.40
2016,05,23,00,31,9.40
2016,05,23,00,32,9.40
2016,05,23,00,33,9.40
2016,05,23,00,34,9.40
2016,05,23,00,35,9.40
2016,05,23,00,36,9.40
2016,05,23,00,37,9.40
2016,05,23,00,38,9.40
2016,05,23,00,39,9.40
2016,05,23,00,40,9.40
2016,05,23,00,41,9.40
2016,05,23,00,42,9.40
2016,05,23,00,43,9.40
2016,05,23,00,44,9.50
2016,05,23,00,45,9.50
2016,05,23,00,46,9.50
2016,05,23,00,47,9.50
2016,05,23,00,48,9.60
2016,05,23,00,49,9.60
2016,05,23,00,50,9.60
2016,05,23,00,51,9.60
2016,05,23,00,52,9.60
2016,05,23,00,53,9.70
2016,05,23,00,54,9.70
2016,05,23,00,55,9.70
2016,05,23,00,56,9.70
2016,05,23,00,57,9.70
2016,05,23,00,58,9.70
2016,05,23,00,59,9.70
2016,05,23,01,00,9.70
2016,05,23,01,01,9.70
2016,05,23,01,02,9.70
2016,05,23,01,03,9.70
2016,05,23,01,04,9.70
2016,05,23,01,05,9.70
2016,05,23,01,06,9.70
2016,05,23,01,07,9.70
2016,05,23,01,08,9.70
2016,05,23,01,09,9.70
2016,05,23,01,10,9.70
2016,05,23,01,11,9.70
2016,05,23,01,12,9.70
2016,05,23,01,13,9.80
2016,05,23,01,14,9.80
2016,05,23,01,15,9.80
2016,05,23,01,16,9.80
2016,05,23,01,17,9.80
2016,05,23,01,18,9.80
2016,05,23,01,19,9.80
2016,05,23,01,20,9.80
2016,05,23,01,21,9.80
2016,05,23,01,22,9.80
2016,05,23,01,23,9.80
2016,05,23,01,24,9.80
2016,05,23,01,25,9.90
2016,05,23,01,26,9.90
2016,05,23,01,27,9.90
2016,05,23,01,28,9.90
2016,05,23,01,29,9.90
2016,05,23,01,30,9.90
2016,05,23,01,31,9.90
2016,05,23,01,32,9.90
2016,05,23,01,33,9.90
2016,05,23,01,34,9.90
2016,05,23,01,35,9.90
2016,05,23,01,36,9.90
2016,05,23,01,37,9.90
2016,05,23,01,38,9.90
2016,05,23,01,39,9.90
2016,05,23,01,40,9.90
2016,05,23,01,41,10.00
2016,05,23,01,42,10.00
2016,05,23,01,43,10.00
2016,05,23,01,44,10.10
2016,05,23,01,45,10.10
2016,05,23,01,46,10.10
2016,05,23,01,47,10.10
2016,05,23,01,48,10.10
2016,05,23,01,49,10.20
2016,05,23,01,50,10.20
2016,05,23,01,51,10.20
2016,05,23,01,52,10.20
2016,05,23,01,53,10.20
2016,05,23,01,54,10.20
2016,05,23,01,55,10.20
2016,05,23,01,56,10.20
2016,05,23,01,57,10.20
2016,05,23,01,58,10.20
2016,05,23,01,59,10.20
2016,05,23,02,00,10.20
2016,05,23,02,01,10.20
2016,05,23,02,02,10.20
2016,05,23,02,03,10.20
2016,05,23,02,04,10.20
2016,05,23,02,05,10.20
2016,05,23,02,06,10.20
2016,05,23,02,07,10.20
2016,05,23,02,08,10.20
2016,05,23,02,09,10.20
2016,05,23,02,10,10.20
2016,05,23,02,11,10.20
2016,05,23,02,12,10.20
2016,05,23,02,13,10.20
2016,05,23,02,14,10.20
2016,05,23,02,15,10.20
2016,05,23,02,16,10.20
2016,05,23,02,17,10.20
2016,05,23,02,18,10.20
2016,05,23,02,19,10.20
2016,05,23,02,20,10.20
2016,05,23,02,21,10.10
2016,05,23,02,22,10.10
2016,05,23,02,23,10.10
2016,05,23,02,24,10.10
2016,05,23,02,25,10.10
2016,05,23,02,26,10.10
2016,05,23,02,27,10.10
2016,05,23,02,28,10.00
2016,05,23,02,29,10.10
2016,05,23,02,30,10.00
2016,05,23,02,31,10.00
2016,05,23,02,32,10.00
2016,05,23,02,33,10.00
2016,05,23,02,34,10.00
2016,05,23,02,35,10.00
2016,05,23,02,36,10.00
2016,05,23,02,37,10.00
2016,05,23,02,38,10.00
2016,05,23,02,39,10.10
2016,05,23,02,40,10.10
2016,05,23,02,41,10.10
2016,05,23,02,42,10.10
2016,05,23,02,43,10.10
2016,05,23,02,44,10.10
2016,05,23,02,45,10.10
2016,05,23,02,46,10.10
2016,05,23,02,47,10.10
2016,05,23,02,48,10.10
2016,05,23,02,49,10.10
2016,05,23,02,50,10.10
2016,05,23,02,51,10.10
2016,05,23,02,52,10.10
2016,05,23,02,53,10.10
2016,05,23,02,54,10.10
2016,05,23,02,55,10.10
2016,05,23,02,56,10.10
2016,05,23,02,57,10.20
2016,05,23,02,58,10.20
2016,05,23,02,59,10.10
2016,05,23,03,00,10.10
2016,05,23,03,01,10.10
2016,05,23,03,02,10.10
2016,05,23,03,03,10.10
2016,05,23,03,04,10.10
2016,05,23,03,05,10.10
2016,05,23,03,06,10.10
2016,05,23,03,07,10.10
2016,05,23,03,08,10.10
2016,05,23,03,09,10.10
2016,05,23,03,10,10.10
2016,05,23,03,11,10.20
2016,05,23,03,12,10.20
2016,05,23,03,13,10.20
2016,05,23,03,14,10.20
2016,05,23,03,15,10.20
2016,05,23,03,16,10.30
2016,05,23,03,17,10.30
2016,05,23,03,18,10.30
2016,05,23,03,19,10.30
2016,05,23,03,20,10.30
2016,05,23,03,21,10.30
2016,05,23,03,22,10.30
2016,05,23,03,23,10.30
2016,05,23,03,24,10.30
2016,05,23,03,25,10.30
2016,05,23,03,26,10.30
2016,05,23,03,27,10.30
2016,05,23,03,28,10.40
2016,05,23,03,29,10.40
2016,05,23,03,30,10.40
2016,05,23,03,31,10.40
2016,05,23,03,32,10.40
2016,05,23,03,33,10.40
2016,05,23,03,34,10.40
2016,05,23,03,35,10.40
2016,05,23,03,36,10.40
2016,05,23,03,37,10.40
2016,05,23,03,38,10.40
2016,05,23,03,39,10.40
2016,05,23,03,40,10.40
2016,05,23,03,41,10.40
2016,05,23,03,42,10.40
2016,05,23,03,43,10.40
2016,05,23,03,44,10.40
2016,05,23,03,45,10.40
2016,05,23,03,46,10.40
2016,05,23,03,47,10.50
2016,05,23,03,48,10.50
2016,05,23,03,49,10.50
2016,05,23,03,50,10.50
2016,05,23,03,51,10.50
2016,05,23,03,52,10.50
2016,05,23,03,53,10.60
2016,05,23,03,54,10.60
2016,05,23,03,55,10.60
2016,05,23,03,56,10.60
2016,05,23,03,57,10.60
2016,05,23,03,58,10.60
2016,05,23,03,59,10.60
2016,05,23,04,00,10.60
2016,05,23,04,01,10.60
2016,05,23,04,02,10.60
2016,05,23,04,03,10.60
2016,05,23,04,04,10.60
2016,05,23,04,05,10.60
2016,05,23,04,06,10.60
2016,05,23,04,07,10.60
2016,05,23,04,08,10.60
2016,05,23,04,09,10.60
2016,05,23,04,10,10.60
2016,05,23,04,11,10.60
2016,05,23,04,12,10.60
2016,05,23,04,13,10.70
2016,05,23,04,14,10.70
2016,05,23,04,15,10.70
2016,05,23,04,16,10.70
2016,05,23,04,17,10.70
2016,05,23,04,18,10.70
2016,05,23,04,19,10.70
2016,05,23,04,20,10.70
2016,05,23,04,21,10.70
2016,05,23,04,22,10.70
2016,05,23,04,23,10.70
2016,05,23,04,24,10.70
2016,05,23,04,25,10.70
2016,05,23,04,26,10.70
2016,05,23,04,27,10.70
2016,05,23,04,28,10.70
2016,05,23,04,29,10.70
2016,05,23,04,30,10.70
2016,05,23,04,31,10.70
2016,05,23,04,32,10.80
2016,05,23,04,33,10.80
2016,05,23,04,34,10.80
2016,05,23,04,35,10.80
2016,05,23,04,36,10.80
2016,05,23,04,37,10.80
2016,05,23,04,38,10.80
2016,05,23,04,39,10.80
2016,05,23,04,40,10.80
2016,05,23,04,41,10.80
2016,05,23,04,42,10.80
2016,05,23,04,43,10.80
2016,05,23,04,44,10.80
2016,05,23,04,45,10.80
2016,05,23,04,46,10.80
2016,05,23,04,47,10.80
2016,05,23,04,48,10.80
2016,05,23,04,49,10.80
2016,05,23,04,50,10.80
2016,05,23,04,51,10.80
2016,05,23,04,52,10.80
2016,05,23,04,53,10.80
2016,05,23,04,54,10.80
2016,05,23,04,55,10.90
2016,05,23,04,56,10.90
2016,05,23,04,57,10.90
2016,05,23,04,58,10.90
2016,05,23,04,59,10.90
2016,05,23,05,00,10.90
2016,05,23,05,01,10.90
2016,05,23,05,02,11.00
2016,05,23,05,03,11.00
2016,05,23,05,04,11.00
2016,05,23,05,05,11.00
2016,05,23,05,06,11.00
2016,05,23,05,07,11.00
2016,05,23,05,08,11.00
2016,05,23,05,09,11.00
2016,05,23,05,10,11.00
2016,05,23,05,11,11.00
2016,05,23,05,12,11.00
2016,05,23,05,13,11.00
2016,05,23,05,14,11.00
2016,05,23,05,15,11.00
2016,05,23,05,16,11.00
2016,05,23,05,17,11.00
2016,05,23,05,18,11.00
2016,05,23,05,19,11.00
2016,05,23,05,20,11.00
2016,05,23,05,21,11.00
2016,05,23,05,22,11.00
2016,05,23,05,23,11.00
2016,05,23,05,24,11.00
2016,05,23,05,25,11.00
2016,05,23,05,26,11.00
2016,05,23,05,27,11.00
2016,05,23,05,28,11.00
2016,05,23,05,29,11.00
2016,05,23,05,30,11.10
2016,05,23,05,31,11.10
2016,05,23,05,32,11.10
2016,05,23,05,33,11.10
2016,05,23,05,34,11.10
2016,05,23,05,35,11.10
2016,05,23,05,36,11.10
2016,05,23,05,37,11.20
2016,05,23,05,38,11.20
2016,05,23,05,39,11.20
2016,05,23,05,40,11.30
2016,05,23,05,41,11.30
2016,05,23,05,42,11.30
2016,05,23,05,43,11.40
2016,05,23,05,44,11.40
2016,05,23,05,45,11.40
2016,05,23,05,46,11.40
2016,05,23,05,47,11.40
2016,05,23,05,48,11.50
2016,05,23,05,49,11.50
2016,05,23,05,50,11.50
2016,05,23,05,51,11.50
2016,05,23,05,52,11.60
2016,05,23,05,53,11.60
2016,05,23,05,54,11.60
2016,05,23,05,55,11.70
2016,05,23,05,56,11.70
2016,05,23,05,57,11.80
2016,05,23,05,58,11.80
2016,05,23,05,59,11.80
2016,05,23,06,00,11.80
2016,05,23,06,01,11.90
2016,05,23,06,02,11.90
2016,05,23,06,03,11.90
2016,05,23,06,04,12.00
2016,05,23,06,05,12.00
2016,05,23,06,06,12.00
2016,05,23,06,07,12.10
2016,05,23,06,08,12.10
2016,05,23,06,09,12.10
2016,05,23,06,10,12.10
2016,05,23,06,11,12.20
2016,05,23,06,12,12.20
2016,05,23,06,13,12.20
2016,05,23,06,14,12.20
2016,05,23,06,15,12.20
2016,05,23,06,16,12.20
2016,05,23,06,17,12.20
2016,05,23,06,18,12.30
2016,05,23,06,19,12.30
2016,05,23,06,20,12.30
2016,05,23,06,21,12.30
2016,05,23,06,22,12.30
2016,05,23,06,23,12.30
2016,05,23,06,24,12.30
2016,05,23,06,25,12.40
2016,05,23,06,26,12.40
2016,05,23,06,27,12.40
2016,05,23,06,28,12.40
2016,05,23,06,29,12.40
2016,05,23,06,30,12.50
2016,05,23,06,31,12.50
2016,05,23,06,32,12.50
2016,05,23,06,33,12.60
2016,05,23,06,34,12.60
2016,05,23,06,35,12.60
2016,05,23,06,36,12.60
2016,05,23,06,37,12.70
2016,05,23,06,38,12.70
2016,05,23,06,39,12.70
2016,05,23,06,40,12.70
2016,05,23,06,41,12.70
2016,05,23,06,42,12.80
2016,05,23,06,43,12.80
2016,05,23,06,44,12.80
2016,05,23,06,45,12.80
2016,05,23,06,46,12.90
2016,05,23,06,47,12.90
2016,05,23,06,48,12.90
2016,05,23,06,49,12.90
2016,05,23,06,50,13.00
2016,05,23,06,51,13.00
2016,05,23,06,52,13.10
2016,05,23,06,53,13.10
2016,05,23,06,54,13.10
2016,05,23,06,55,13.10
2016,05,23,06,56,13.10
2016,05,23,06,57,13.10
2016,05,23,06,58,13.10
2016,05,23,06,59,13.20
2016,05,23,07,00,13.20
2016,05,23,07,01,13.20
2016,05,23,07,02,13.20
2016,05,23,07,03,13.20
2016,05,23,07,04,13.20
2016,05,23,07,05,13.20
2016,05,23,07,06,13.20
2016,05,23,07,07,13.20
2016,05,23,07,08,13.20
2016,05,23,07,09,13.20
2016,05,23,07,10,13.30
2016,05,23,07,11,13.30
2016,05,23,07,12,13.30
2016,05,23,07,13,13.30
2016,05,23,07,14,13.30
2016,05,23,07,15,13.30
2016,05,23,07,16,13.30
2016,05,23,07,17,13.30
2016,05,23,07,18,13.30
2016,05,23,07,19,13.30
2016,05,23,07,20,13.30
2016,05,23,07,21,13.30
2016,05,23,07,22,13.30
2016,05,23,07,23,13.30
2016,05,23,07,24,13.30
2016,05,23,07,25,13.30
2016,05,23,07,26,13.30
2016,05,23,07,27,13.30
2016,05,23,07,28,13.30
2016,05,23,07,29,13.30
2016,05,23,07,30,13.30
2016,05,23,07,31,13.30
2016,05,23,07,32,13.30
2016,05,23,07,33,13.30
2016,05,23,07,34,13.30
2016,05,23,07,35,13.30
2016,05,23,07,36,13.30
2016,05,23,07,37,13.30
2016,05,23,07,38,13.30
2016,05,23,07,39,13.30
2016,05,23,07,40,13.30
2016,05,23,07,41,13.30
2016,05,23,07,42,13.30
2016,05,23,07,43,13.30
2016,05,23,07,44,13.30
2016,05,23,07,45,13.30
2016,05,23,07,46,13.30
2016,05,23,07,47,13.30
2016,05,23,07,48,13.30
2016,05,23,07,49,13.30
2016,05,23,07,50,13.30
2016,05,23,07,51,13.40
2016,05,23,07,52,13.40
2016,05,23,07,53,13.40
2016,05,23,07,54,13.40
2016,05,23,07,55,13.40
2016,05,23,07,56,13.40
2016,05,23,07,57,13.40
2016,05,23,07,58,13.40
2016,05,23,07,59,13.40
2016,05,23,08,00,13.40
2016,05,23,08,01,13.50
2016,05,23,08,02,13.50
2016,05,23,08,03,13.50
2016,05,23,08,04,13.60
2016,05,23,08,05,13.60
2016,05,23,08,06,13.60
2016,05,23,08,07,13.60
2016,05,23,08,08,13.70
2016,05,23,08,09,13.70
2016,05,23,08,10,13.70
2016,05,23,08,11,13.70
2016,05,23,08,12,13.70
2016,05,23,08,13,13.70
2016,05,23,08,14,13.80
2016,05,23,08,15,13.80
2016,05,23,08,16,13.80
2016,05,23,08,17,13.80
2016,05,23,08,18,13.80
2016,05,23,08,19,13.80
2016,05,23,08,20,13.90
2016,05,23,08,21,13.90
2016,05,23,08,22,13.90
2016,05,23,08,23,13.90
2016,05,23,08,24,14.00
2016,05,23,08,25,14.00
2016,05,23,08,26,14.00
2016,05,23,08,27,14.00
2016,05,23,08,28,14.10
2016,05,23,08,29,14.10
2016,05,23,08,30,14.10
2016,05,23,08,31,14.10
2016,05,23,08,32,14.10
2016,05,23,08,33,14.10
2016,05,23,08,34,14.10
2016,05,23,08,35,14.10
2016,05,23,08,36,14.10
2016,05,23,08,37,14.10
2016,05,23,08,38,14.10
2016,05,23,08,39,14.10
2016,05,23,08,40,14.10
2016,05,23,08,41,14.10
2016,05,23,08,42,14.10
2016,05,23,08,43,14.10
2016,05,23,08,44,14.10
2016,05,23,08,45,14.10
2016,05,23,08,46,14.10
2016,05,23,08,47,14.10
2016,05,23,08,48,14.10
2016,05,23,08,49,14.10
2016,05,23,08,50,14.10
2016,05,23,08,51,14.10
2016,05,23,08,52,14.10
2016,05,23,08,53,14.20
2016,05,23,08,54,14.20
2016,05,23,08,55,14.20
2016,05,23,08,56,14.20
2016,05,23,08,57,14.20
2016,05,23,08,58,14.20
2016,05,23,08,59,14.20
2016,05,23,09,00,14.20
2016,05,23,09,01,14.20
2016,05,23,09,02,14.20
2016,05,23,09,03,14.20
2016,05,23,09,04,14.20
2016,05,23,09,05,14.20
2016,05,23,09,06,14.30
2016,05,23,09,07,14.30
2016,05,23,09,08,14.30
2016,05,23,09,09,14.30
2016,05,23,09,10,14.30
2016,05,23,09,11,14.30
2016,05,23,09,12,14.40
2016,05,23,09,13,14.40
2016,05,23,09,14,14.40
2016,05,23,09,15,14.40
2016,05,23,09,16,14.40
2016,05,23,09,17,14.40
2016,05,23,09,18,14.40
2016,05,23,09,19,14.40
2016,05,23,09,20,14.40
2016,05,23,09,21,14.40
2016,05,23,09,22,14.40
2016,05,23,09,23,14.40
2016,05,23,09,24,14.40
2016,05,23,09,25,14.40
2016,05,23,09,26,14.40
2016,05,23,09,27,14.40
2016,05,23,09,28,14.40
2016,05,23,09,29,14.50
2016,05,23,09,30,14.50
2016,05,23,09,31,14.50
2016,05,23,09,32,14.50
2016,05,23,09,33,14.60
2016,05,23,09,34,14.60
2016,05,23,09,35,14.60
2016,05,23,09,36,14.60
2016,05,23,09,37,14.70
2016,05,23,09,38,14.70
2016,05,23,09,39,14.70
2016,05,23,09,40,14.70
2016,05,23,09,41,14.70
2016,05,23,09,42,14.70
2016,05,23,09,43,14.70
2016,05,23,09,44,14.80
2016,05,23,09,45,14.80
2016,05,23,09,46,14.80
2016,05,23,09,47,14.80
2016,05,23,09,48,14.80
2016,05,23,09,49,14.80
2016,05,23,09,50,14.90
2016,05,23,09,51,14.90
2016,05,23,09,52,14.90
2016,05,23,09,53,15.00
2016,05,23,09,54,15.00
2016,05,23,09,55,15.00
2016,05,23,09,56,15.00
2016,05,23,09,57,15.00
2016,05,23,09,58,15.00
2016,05,23,09,59,15.00
2016,05,23,10,00,15.00
2016,05,23,10,01,15.00
2016,05,23,10,02,15.00
2016,05,23,10,03,15.00
2016,05,23,10,04,15.10
2016,05,23,10,05,15.10
2016,05,23,10,06,15.10
2016,05,23,10,07,15.10
2016,05,23,10,08,15.10
2016,05,23,10,09,15.20
2016,05,23,10,10,15.20
2016,05,23,10,11,15.30
2016,05,23,10,12,15.30
2016,05,23,10,13,15.40
2016,05,23,10,14,15.40
2016,05,23,10,15,15.40
2016,05,23,10,16,15.40
2016,05,23,10,17,15.50
2016,05,23,10,18,15.50
2016,05,23,10,19,15.60
2016,05,23,10,20,15.60
2016,05,23,10,21,15.60
2016,05,23,10,22,15.70
2016,05,23,10,23,15.70
2016,05,23,10,24,15.70
2016,05,23,10,25,15.70
2016,05,23,10,26,15.80
2016,05,23,10,27,15.80
2016,05,23,10,28,15.80
2016,05,23,10,29,15.90
2016,05,23,10,30,15.90
2016,05,23,10,31,15.90
2016,05,23,10,32,15.90
2016,05,23,10,33,15.90
2016,05,23,10,34,16.00
2016,05,23,10,35,16.00
2016,05,23,10,36,16.00
2016,05,23,10,37,16.10
2016,05,23,10,38,16.10
2016,05,23,10,39,16.20
2016,05,23,10,40,16.10
2016,05,23,10,41,16.10
2016,05,23,10,42,16.10
2016,05,23,10,43,16.20
2016,05,23,10,44,16.30
2016,05,23,10,45,16.30
2016,05,23,10,46,16.30
2016,05,23,10,47,16.30
2016,05,23,10,48,16.30
2016,05,23,10,49,16.40
2016,05,23,10,50,16.50
2016,05,23,10,51,16.50
2016,05,23,10,52,16.50
2016,05,23,10,53,16.50
2016,05,23,10,54,16.50
2016,05,23,10,55,16.60
2016,05,23,10,56,16.70
2016,05,23,10,57,16.70
2016,05,23,10,58,16.80
2016,05,23,10,59,16.80
2016,05,23,11,00,16.90
2016,05,23,11,01,16.90
2016,05,23,11,02,16.90
2016,05,23,11,03,16.90
2016,05,23,11,04,16.80
2016,05,23,11,05,16.70
2016,05,23,11,06,16.70
2016,05,23,11,07,16.60
2016,05,23,11,08,16.60
2016,05,23,11,09,16.70
2016,05,23,11,10,16.60
2016,05,23,11,11,16.60
2016,05,23,11,12,16.60
2016,05,23,11,13,16.60
2016,05,23,11,14,16.60
2016,05,23,11,15,16.60
2016,05,23,11,16,16.60
2016,05,23,11,17,16.60
2016,05,23,11,18,16.50
2016,05,23,11,19,16.60
2016,05,23,11,20,16.60
2016,05,23,11,21,16.70
2016,05,23,11,22,16.80
2016,05,23,11,23,16.90
2016,05,23,11,24,16.90
2016,05,23,11,25,16.90
2016,05,23,11,26,16.90
2016,05,23,11,27,16.90
2016,05,23,11,28,17.00
2016,05,23,11,29,17.10
2016,05,23,11,30,17.10
2016,05,23,11,31,17.20
2016,05,23,11,32,17.20
2016,05,23,11,33,17.10
2016,05,23,11,34,17.10
2016,05,23,11,35,17.00
2016,05,23,11,36,16.90
2016,05,23,11,37,16.90
2016,05,23,11,38,16.90
2016,05,23,11,39,17.00
2016,05,23,11,40,17.10
2016,05,23,11,41,17.10
2016,05,23,11,42,17.10
2016,05,23,11,43,17.20
2016,05,23,11,44,17.20
2016,05,23,11,45,17.20
2016,05,23,11,46,17.20
2016,05,23,11,47,17.20
2016,05,23,11,48,17.20
2016,05,23,11,49,17.20
2016,05,23,11,50,17.10
2016,05,23,11,51,17.00
2016,05,23,11,52,17.00
2016,05,23,11,53,16.90
2016,05,23,11,54,16.90
2016,05,23,11,55,16.90
2016,05,23,11,56,17.00
2016,05,23,11,57,17.00
2016,05,23,11,58,17.10
2016,05,23,11,59,17.10
2016,05,23,12,00,17.10
2016,05,23,12,01,17.10
2016,05,23,12,02,17.10
2016,05,23,12,03,17.10
2016,05,23,12,04,17.20
2016,05,23,12,05,17.20
2016,05,23,12,06,17.20
2016,05,23,12,07,17.20
2016,05,23,12,08,17.10
2016,05,23,12,09,17.10
2016,05,23,12,10,17.00
2016,05,23,12,11,17.00
2016,05,23,12,12,16.90
2016,05,23,12,13,16.90
2016,05,23,12,14,16.80
2016,05,23,12,15,16.70
2016,05,23,12,16,16.60
2016,05,23,12,17,16.60
2016,05,23,12,18,16.50
2016,05,23,12,19,16.50
2016,05,23,12,20,16.40
2016,05,23,12,21,16.50
2016,05,23,12,22,16.50
2016,05,23,12,23,16.60
2016,05,23,12,24,16.60
2016,05,23,12,25,16.60
2016,05,23,12,26,16.60
2016,05,23,12,27,16.60
2016,05,23,12,28,16.60
2016,05,23,12,29,16.60
2016,05,23,12,30,16.70
2016,05,23,12,31,16.70
2016,05,23,12,32,16.70
2016,05,23,12,33,16.70
2016,05,23,12,34,16.70
2016,05,23,12,35,16.70
2016,05,23,12,36,16.70
2016,05,23,12,37,16.70
2016,05,23,12,38,16.80
2016,05,23,12,39,16.80
2016,05,23,12,40,16.80
2016,05,23,12,41,16.80
2016,05,23,12,42,16.80
2016,05,23,12,43,16.80
2016,05,23,12,44,16.80
2016,05,23,12,45,16.80
2016,05,23,12,46,16.80
2016,05,23,12,47,16.80
2016,05,23,12,48,16.80
2016,05,23,12,49,16.80
2016,05,23,12,50,16.80
2016,05,23,12,51,16.80
2016,05,23,12,52,16.80
2016,05,23,12,53,16.70
2016,05,23,12,54,16.70
2016,05,23,12,55,16.70
2016,05,23,12,56,16.60
2016,05,23,12,57,16.60
2016,05,23,12,58,16.50
2016,05,23,12,59,16.50
2016,05,23,13,00,16.40
2016,05,23,13,01,16.40
2016,05,23,13,02,16.40
2016,05,23,13,03,16.40
2016,05,23,13,04,16.40
2016,05,23,13,05,16.40
2016,05,23,13,06,16.40
2016,05,23,13,07,16.30
2016,05,23,13,08,16.30
2016,05,23,13,09,16.30
2016,05,23,13,10,16.20
2016,05,23,13,11,16.20
2016,05,23,13,12,16.20
2016,05,23,13,13,16.20
2016,05,23,13,14,16.20
2016,05,23,13,15,16.10
2016,05,23,13,16,16.10
2016,05,23,13,17,16.10
2016,05,23,13,18,16.10
2016,05,23,13,19,16.10
2016,05,23,13,20,16.00
2016,05,23,13,21,16.00
2016,05,23,13,22,16.00
2016,05,23,13,23,16.00
2016,05,23,13,24,16.00
2016,05,23,13,25,16.00
2016,05,23,13,26,16.00
2016,05,23,13,27,16.10
2016,05,23,13,28,16.10
2016,05,23,13,29,16.10
2016,05,23,13,30,16.10
2016,05,23,13,31,16.10
2016,05,23,13,32,16.10
2016,05,23,13,33,16.10
2016,05,23,13,34,16.10
2016,05,23,13,35,16.10
2016,05,23,13,36,16.10
2016,05,23,13,37,16.10
2016,05,23,13,38,16.10
2016,05,23,13,39,16.10
2016,05,23,13,40,16.10
2016,05,23,13,41,16.10
2016,05,23,13,42,16.20
2016,05,23,13,43,16.20
2016,05,23,13,44,16.20
2016,05,23,13,45,16.20
2016,05,23,13,46,16.20
2016,05,23,13,47,16.30
2016,05,23,13,48,16.30
2016,05,23,13,49,16.30
2016,05,23,13,50,16.30
2016,05,23,13,51,16.40
2016,05,23,13,52,16.40
2016,05,23,13,53,16.40
2016,05,23,13,54,16.40
2016,05,23,13,55,16.30
2016,05,23,13,56,16.30
2016,05,23,13,57,16.20
2016,05,23,13,58,16.20
2016,05,23,13,59,16.10
2016,05,23,14,00,16.10
2016,05,23,14,01,16.10
2016,05,23,14,02,16.10
2016,05,23,14,03,16.10
2016,05,23,14,04,16.10
2016,05,23,14,05,16.10
2016,05,23,14,06,16.20
2016,05,23,14,07,16.20
2016,05,23,14,08,16.30
2016,05,23,14,09,16.40
2016,05,23,14,10,16.40
2016,05,23,14,11,16.40
2016,05,23,14,12,16.50
2016,05,23,14,13,16.50
2016,05,23,14,14,16.60
2016,05,23,14,15,16.60
2016,05,23,14,16,16.60
2016,05,23,14,17,16.70
2016,05,23,14,18,16.70
2016,05,23,14,19,16.70
2016,05,23,14,20,16.70
2016,05,23,14,21,16.70
2016,05,23,14,22,16.70
2016,05,23,14,23,16.60
2016,05,23,14,24,16.60
2016,05,23,14,25,16.60
2016,05,23,14,26,16.60
2016,05,23,14,27,16.60
2016,05,23,14,28,16.70
2016,05,23,14,29,16.70
2016,05,23,14,30,16.80
2016,05,23,14,31,16.80
2016,05,23,14,32,16.80
2016,05,23,14,33,16.80
2016,05,23,14,34,16.80
2016,05,23,14,35,16.80
2016,05,23,14,36,16.80
2016,05,23,14,37,16.90
2016,05,23,14,38,16.90
2016,05,23,14,39,17.00
2016,05,23,14,40,17.00
2016,05,23,14,41,17.10
2016,05,23,14,42,17.10
2016,05,23,14,43,17.20
2016,05,23,14,44,17.30
2016,05,23,14,45,17.30
2016,05,23,14,46,17.20
2016,05,23,14,47,17.20
2016,05,23,14,48,17.10
2016,05,23,14,49,17.20
2016,05,23,14,50,17.20
2016,05,23,14,51,17.20
2016,05,23,14,52,17.10
2016,05,23,14,53,17.10
2016,05,23,14,54,17.10
2016,05,23,14,55,17.10
2016,05,23,14,56,17.10
2016,05,23,14,57,17.00
2016,05,23,14,58,17.00
2016,05,23,14,59,17.00
2016,05,23,15,00,17.00
2016,05,23,15,01,17.00
2016,05,23,15,02,17.00
2016,05,23,15,03,17.00
2016,05,23,15,04,17.00
2016,05,23,15,05,17.00
2016,05,23,15,06,17.10
2016,05,23,15,07,17.10
2016,05,23,15,08,17.10
2016,05,23,15,09,17.10
2016,05,23,15,10,17.10
2016,05,23,15,11,17.10
2016,05,23,15,12,17.00
2016,05,23,15,13,17.00
2016,05,23,15,14,17.00
2016,05,23,15,15,17.00
2016,05,23,15,16,17.00
2016,05,23,15,17,17.10
2016,05,23,15,18,17.10
2016,05,23,15,19,17.10
2016,05,23,15,20,17.20
2016,05,23,15,21,17.20
2016,05,23,15,22,17.20
2016,05,23,15,23,17.30
2016,05,23,15,24,17.30
2016,05,23,15,25,17.30
2016,05,23,15,26,17.30
2016,05,23,15,27,17.40
2016,05,23,15,28,17.40
2016,05,23,15,29,17.40
2016,05,23,15,30,17.40
2016,05,23,15,31,17.40
2016,05,23,15,32,17.50
2016,05,23,15,33,17.50
2016,05,23,15,34,17.50
2016,05,23,15,35,17.50
2016,05,23,15,36,17.50
2016,05,23,15,37,17.50
2016,05,23,15,38,17.50
2016,05,23,15,39,17.50
2016,05,23,15,40,17.50
2016,05,23,15,41,17.60
2016,05,23,15,42,17.60
2016,05,23,15,43,17.60
2016,05,23,15,44,17.70
2016,05,23,15,45,17.70
2016,05,23,15,46,17.70
2016,05,23,15,47,17.80
2016,05,23,15,48,17.80
2016,05,23,15,49,17.90
2016,05,23,15,50,18.00
2016,05,23,15,51,18.00
2016,05,23,15,52,18.00
2016,05,23,15,53,18.10
2016,05,23,15,54,18.10
2016,05,23,15,55,18.00
2016,05,23,15,56,18.10
2016,05,23,15,57,18.10
2016,05,23,15,58,18.10
2016,05,23,15,59,18.10
2016,05,23,16,00,18.10
2016,05,23,16,01,18.00
2016,05,23,16,02,18.00
2016,05,23,16,03,17.90
2016,05,23,16,04,17.90
2016,05,23,16,05,17.90
2016,05,23,16,06,17.80
2016,05,23,16,07,17.80
2016,05,23,16,08,17.70
2016,05,23,16,09,17.60
2016,05,23,16,10,17.60
2016,05,23,16,11,17.60
2016,05,23,16,12,17.60
2016,05,23,16,13,17.60
2016,05,23,16,14,17.60
2016,05,23,16,15,17.60
2016,05,23,16,16,17.70
2016,05,23,16,17,17.70
2016,05,23,16,18,17.70
2016,05,23,16,19,17.70
2016,05,23,16,20,17.60
2016,05,23,16,21,17.60
2016,05,23,16,22,17.50
2016,05,23,16,23,17.50
2016,05,23,16,24,17.40
2016,05,23,16,25,17.40
2016,05,23,16,26,17.30
2016,05,23,16,27,17.40
2016,05,23,16,28,17.40
2016,05,23,16,29,17.40
2016,05,23,16,30,17.40
2016,05,23,16,31,17.40
2016,05,23,16,32,17.40
2016,05,23,16,33,17.40
2016,05,23,16,34,17.40
2016,05,23,16,35,17.40
2016,05,23,16,36,17.40
2016,05,23,16,37,17.50
2016,05,23,16,38,17.50
2016,05,23,16,39,17.60
2016,05,23,16,40,17.60
2016,05,23,16,41,17.60
2016,05,23,16,42,17.60
2016,05,23,16,43,17.60
2016,05,23,16,44,17.60
2016,05,23,16,45,17.60
2016,05,23,16,46,17.70
2016,05,23,16,47,17.70
2016,05,23,16,48,17.70
2016,05,23,16,49,17.70
2016,05,23,16,50,17.70
2016,05,23,16,51,17.70
2016,05,23,16,52,17.70
2016,05,23,16,53,17.80
2016,05,23,16,54,17.80
2016,05,23,16,55,17.80
2016,05,23,16,56,17.80
2016,05,23,16,57,17.90
2016,05,23,16,58,17.80
2016,05,23,16,59,17.80
2016,05,23,17,00,17.70
2016,05,23,17,01,17.70
2016,05,23,17,02,17.60
2016,05,23,17,03,17.60
2016,05,23,17,04,17.60
2016,05,23,17,05,17.50
2016,05,23,17,06,17.50
2016,05,23,17,07,17.50
2016,05,23,17,08,17.50
2016,05,23,17,09,17.60
2016,05,23,17,10,17.50
2016,05,23,17,11,17.50
2016,05,23,17,12,17.40
2016,05,23,17,13,17.40
2016,05,23,17,14,17.40
2016,05,23,17,15,17.30
2016,05,23,17,16,17.30
2016,05,23,17,17,17.30
2016,05,23,17,18,17.20
2016,05,23,17,19,17.20
2016,05,23,17,20,17.20
2016,05,23,17,21,17.20
2016,05,23,17,22,17.20
2016,05,23,17,23,17.20